• In Hungary
  • List of Countries
  • For 7 days
  • Water Temperature
  • Satellite Maps
  • Weather Map
  • News
  • Weather Widgets
  • user-avatar
    Login

    Hourly Weather Krasnaya Zvezda

    Today, 21 August, Tuesday

    Time Temperature Precipitation Wind Pressure Humidity
    00:00 +19°C° 0 mm 3 mps 751 mmHg 69%
    01:00 +19°C° 0 mm 3 mps 750 mmHg 69%
    02:00 +18°C° 0 mm 3 mps 750 mmHg 70%
    03:00 +18°C° 0 mm 2 mps 750 mmHg 71%
    04:00 +18°C° 0.1 mm 3 mps 750 mmHg 72%
    05:00 +18°C° 0.1 mm 3 mps 750 mmHg 74%
    06:00 +18°C° 0.1 mm 3 mps 750 mmHg 76%
    07:00 +20°C° 0 mm 4 mps 750 mmHg 70%
    08:00 +22°C° 0 mm 5 mps 749 mmHg 64%
    09:00 +25°C° 0 mm 5 mps 749 mmHg 57%
    10:00 +26°C° 0 mm 6 mps 749 mmHg 53%
    11:00 +28°C° 0 mm 7 mps 749 mmHg 48%
    12:00 +29°C° 0 mm 7 mps 748 mmHg 44%
    13:00 +29°C° 0 mm 8 mps 748 mmHg 43%
    14:00 +29°C° 0 mm 8 mps 747 mmHg 42%
    15:00 +31°C° 0 mm 8 mps 747 mmHg 41%
    16:00 +29°C° 0.1 mm 7 mps 746 mmHg 45%
    17:00 +28°C° 0.1 mm 6 mps 746 mmHg 49%
    18:00 +27°C° 0.1 mm 5 mps 746 mmHg 53%
    19:00 +25°C° 1.1 mm 5 mps 746 mmHg 62%
    20:00 +23°C° 1.1 mm 5 mps 746 mmHg 71%
    21:00 +21°C° 1.1 mm 4 mps 745 mmHg 80%
    22:00 +20°C° 0.6 mm 4 mps 746 mmHg 84%
    23:00 +19°C° 0.6 mm 4 mps 746 mmHg 87%

    Tomorrow, 22 August, Wednesday

    Time Temperature Precipitation Wind Pressure Humidity
    00:00 +18°C° 0.6 mm 3 mps 746 mmHg 90%
    01:00 +17°C° 0 mm 3 mps 746 mmHg 90%
    02:00 +16°C° 0 mm 3 mps 747 mmHg 89%
    03:00 +14°C° 0 mm 3 mps 747 mmHg 89%
    04:00 +13°C° 0 mm 3 mps 747 mmHg 88%
    05:00 +13°C° 0 mm 3 mps 748 mmHg 88%
    06:00 +12°C° 0 mm 3 mps 748 mmHg 88%
    07:00 +13°C° 0 mm 4 mps 749 mmHg 79%
    08:00 +15°C° 0 mm 5 mps 749 mmHg 71%
    09:00 +16°C° 0 mm 5 mps 749 mmHg 63%
    10:00 +17°C° 0 mm 5 mps 749 mmHg 57%
    11:00 +19°C° 0 mm 6 mps 750 mmHg 51%
    12:00 +20°C° 0 mm 6 mps 750 mmHg 46%
    13:00 +21°C° 0 mm 6 mps 750 mmHg 44%
    14:00 +21°C° 0 mm 6 mps 750 mmHg 43%
    15:00 +21°C° 0 mm 6 mps 751 mmHg 42%
    16:00 +21°C° 0 mm 6 mps 751 mmHg 45%
    17:00 +20°C° 0 mm 5 mps 751 mmHg 48%
    18:00 +20°C° 0 mm 4 mps 752 mmHg 50%
    19:00 +18°C° 0 mm 4 mps 752 mmHg 53%
    20:00 +17°C° 0 mm 3 mps 753 mmHg 57%
    21:00 +16°C° 0 mm 3 mps 753 mmHg 60%
    22:00 +14°C° 0 mm 3 mps 754 mmHg 63%
    23:00 +13°C° 0 mm 3 mps 754 mmHg 66%

    Day after tomorrow, 23 August, Thursday

    Time Temperature Precipitation Wind Pressure Humidity
    00:00 +12°C° 0 mm 3 mps 754 mmHg 69%
    01:00 +12°C° 0 mm 3 mps 755 mmHg 71%
    02:00 +11°C° 0 mm 3 mps 755 mmHg 73%
    03:00 +10°C° 0 mm 2 mps 755 mmHg 75%
    04:00 +10°C° 0 mm 2 mps 756 mmHg 75%
    05:00 +10°C° 0 mm 2 mps 756 mmHg 76%
    06:00 +10°C° 0 mm 2 mps 756 mmHg 77%
    07:00 +13°C° 0 mm 2 mps 757 mmHg 70%
    08:00 +15°C° 0 mm 2 mps 757 mmHg 64%
    09:00 +17°C° 0 mm 2 mps 757 mmHg 57%
    10:00 +18°C° 0 mm 2 mps 757 mmHg 52%
    11:00 +19°C° 0 mm 3 mps 757 mmHg 47%
    12:00 +20°C° 0 mm 3 mps 757 mmHg 41%
    13:00 +21°C° 0 mm 3 mps 757 mmHg 40%
    14:00 +21°C° 0 mm 3 mps 757 mmHg 39%
    15:00 +22°C° 0 mm 3 mps 757 mmHg 37%
    16:00 +21°C° 0 mm 2 mps 757 mmHg 41%
    17:00 +21°C° 0 mm 2 mps 757 mmHg 44%
    18:00 +20°C° 0 mm 2 mps 756 mmHg 48%
    19:00 +18°C° 0 mm 2 mps 757 mmHg 52%
    20:00 +17°C° 0 mm 2 mps 757 mmHg 56%
    21:00 +15°C° 0 mm 2 mps 757 mmHg 59%
    22:00 +14°C° 0 mm 1 mps 757 mmHg 61%
    23:00 +14°C° 0 mm 1 mps 757 mmHg 63%

    24 August, Friday

    Time Temperature Precipitation Wind Pressure Humidity
    00:00 +13°C° 0 mm 1 mps 757 mmHg 64%
    01:00 +13°C° 0 mm 1 mps 757 mmHg 66%
    02:00 +13°C° 0 mm 1 mps 758 mmHg 67%
    03:00 +12°C° 0 mm 1 mps 758 mmHg 68%
    04:00 +12°C° 0 mm 1 mps 758 mmHg 70%
    05:00 +12°C° 0 mm 1 mps 758 mmHg 71%
    06:00 +12°C° 0 mm 1 mps 758 mmHg 72%
    07:00 +14°C° 0 mm 1 mps 758 mmHg 65%
    08:00 +16°C° 0 mm 1 mps 758 mmHg 59%
    09:00 +19°C° 0 mm 2 mps 758 mmHg 52%
    10:00 +20°C° 0 mm 2 mps 757 mmHg 48%
    11:00 +21°C° 0 mm 2 mps 757 mmHg 45%
    12:00 +23°C° 0 mm 2 mps 757 mmHg 41%
    13:00 +24°C° 0 mm 2 mps 757 mmHg 40%
    14:00 +24°C° 0 mm 2 mps 757 mmHg 39%
    15:00 +25°C° 0 mm 2 mps 756 mmHg 37%
    16:00 +24°C° 0 mm 2 mps 756 mmHg 41%
    17:00 +24°C° 0 mm 1 mps 756 mmHg 44%
    18:00 +23°C° 0 mm 1 mps 756 mmHg 48%
    19:00 +21°C° 0 mm 1 mps 756 mmHg 52%
    20:00 +19°C° 0 mm 1 mps 756 mmHg 55%
    21:00 +16°C° 0 mm 1 mps 756 mmHg 59%
    22:00 +16°C° 0 mm 1 mps 756 mmHg 60%
    23:00 +16°C° 0 mm 1 mps 756 mmHg 62%

    25 August, Saturday

    Time Temperature Precipitation Wind Pressure Humidity
    00:00 +15°C° 0 mm 1 mps 756 mmHg 63%
    01:00 +15°C° 0 mm 1 mps 756 mmHg 64%
    02:00 +14°C° 0 mm 1 mps 756 mmHg 66%
    03:00 +14°C° 0 mm 1 mps 756 mmHg 67%
    04:00 +14°C° 0 mm 1 mps 756 mmHg 68%
    05:00 +14°C° 0 mm 1 mps 756 mmHg 69%
    06:00 +14°C° 0 mm 1 mps 756 mmHg 69%
    07:00 +16°C° 0 mm 1 mps 756 mmHg 63%
    08:00 +19°C° 0 mm 1 mps 756 mmHg 57%
    09:00 +21°C° 0 mm 2 mps 756 mmHg 50%
    10:00 +23°C° 0 mm 2 mps 756 mmHg 46%
    11:00 +24°C° 0 mm 2 mps 756 mmHg 42%
    12:00 +25°C° 0 mm 2 mps 756 mmHg 39%
    13:00 +26°C° 0 mm 2 mps 756 mmHg 37%
    14:00 +26°C° 0 mm 2 mps 756 mmHg 36%
    15:00 +27°C° 0 mm 2 mps 756 mmHg 35%
    16:00 +26°C° 0 mm 2 mps 755 mmHg 39%
    17:00 +25°C° 0 mm 2 mps 755 mmHg 43%
    18:00 +25°C° 0 mm 2 mps 755 mmHg 48%
    19:00 +23°C° 0 mm 2 mps 755 mmHg 51%
    20:00 +20°C° 0 mm 2 mps 755 mmHg 55%
    21:00 +18°C° 0 mm 2 mps 755 mmHg 58%
    22:00 +18°C° 0 mm 2 mps 755 mmHg 60%
    23:00 +17°C° 0 mm 2 mps 756 mmHg 62%

    26 August, Sunday

    Time Temperature Precipitation Wind Pressure Humidity
    00:00 +17°C° 0 mm 2 mps 756 mmHg 63%
    01:00 +16°C° 0 mm 2 mps 756 mmHg 65%
    02:00 +16°C° 0 mm 2 mps 756 mmHg 66%
    03:00 +15°C° 0 mm 2 mps 756 mmHg 67%
    04:00 +15°C° 0 mm 2 mps 756 mmHg 69%
    05:00 +15°C° 0 mm 2 mps 756 mmHg 70%
    06:00 +15°C° 0 mm 2 mps 756 mmHg 71%
    07:00 +17°C° 0 mm 2 mps 756 mmHg 65%
    08:00 +19°C° 0 mm 2 mps 756 mmHg 59%
    09:00 +22°C° 0 mm 3 mps 757 mmHg 53%
    10:00 +24°C° 0 mm 3 mps 756 mmHg 48%
    11:00 +26°C° 0 mm 3 mps 756 mmHg 44%
    12:00 +27°C° 0 mm 3 mps 756 mmHg 39%
    13:00 +27°C° 0 mm 3 mps 756 mmHg 39%
    14:00 +28°C° 0 mm 3 mps 756 mmHg 38%
    15:00 +28°C° 0 mm 3 mps 755 mmHg 37%
    16:00 +28°C° 0 mm 3 mps 755 mmHg 41%
    17:00 +27°C° 0 mm 2 mps 755 mmHg 46%
    18:00 +26°C° 0 mm 2 mps 755 mmHg 50%
    19:00 +24°C° 0 mm 2 mps 755 mmHg 56%
    20:00 +22°C° 0 mm 3 mps 755 mmHg 62%
    21:00 +20°C° 0 mm 3 mps 755 mmHg 68%
    22:00 +19°C° 0 mm 3 mps 755 mmHg 70%
    23:00 +19°C° 0 mm 3 mps 755 mmHg 73%
    Show more